Location: Ellerstadt
(49.4644°N, 8.2615°E)
Time: 00:25:07
(UTC+00:00)

ISS - Pass Details

Date: 15 May 2021
Orbit: 417 x 422 km, 51.6° (Epoch: 15 June)

Event Time Altitude Azimuth Distance (km) Brightness Sun altitude
Rises 20:00:57 0° 209° (SSW) 2,352 -0.1 -8.1°
Reaches altitude 10° 20:03:21 10° 193° (SSW) 1,494 -1.3 -8.4°
Maximum altitude 20:05:57 21° 141° (SE) 997 -2.5 -8.7°
Drops below altitude 10° 20:08:34 10° 90° (E) 1,503 -1.4 -9.0°
Sets 20:11:00 0° 74° (ENE) 2,372 -0.2 -9.3°
